sat.trackr.live / text

‹ back to catalog

STARLINK-5332

NORAD 55285 · 2023-010S

PAYLOAD ACTIVE UNKNOWN

§ Identity

Operator
Country
US
Launch date
2023-01-19
Launch site
AFWTR
Launch vehicle
Mass (kg)
RCS (m²)

Purposes: comms

External: N2YO · Heavens-Above · Gunter

§ Orbital elements

Epoch: 2026-05-25T03:04:17.905728Z

Period
96.11 min
Inclination
69.9984°
Eccentricity
0.0003349
Mean motion
14.98327315 rev/d
Perigee alt
569.7 km
Apogee alt
574.4 km
Semi-major
6,950.2 km
B*
4.2332e-5
RAAN
171.6487°
Arg perigee
266.3242°
Mean anomaly
93.7534°
Rev number
18,609

§ Raw data

STARLINK-53321 55285U 23010S   26145.12798502  .00000412  00000+0  42332-4 0  99972 55285  69.9984 171.6487 0003349 266.3242  93.7534 14.98327315186098

JSON: /api/v1/satellites/55285 · /tle

For live sub-satellite position, see the globe view (requires WebGL).

§ Visibility from observer

Set your observer location to see the next 7 days of passes ≥ 10°. The values pass through the URL so the page stays shareable.

No JS? Fill the form by hand. The geolocation button needs JavaScript.